AirNav   ATP
 
 386 users online  

24CT Bee Field Airport
Jewett City, Connecticut, USA


FAA INFORMATION EFFECTIVE 01 FEBRUARY 2018

Location

FAA Identifier: 24CT
Lat/Long: 41-34-00.7900N / 071-58-00.7800W
41-34.013167N / 071-58.013000W
41.5668861 / -71.9668833
(estimated)
Elevation: 280 ft. / 85 m (estimated)
Time zone: UTC -5 (UTC -4 during Daylight Saving Time)
Zip code: 06351

Airport Operations

Airport use: Private use. Permission required prior to landing
Activation date: 05/2007
Control tower: no
ARTCC: BOSTON CENTER
FSS: BRIDGEPORT FLIGHT SERVICE STATION
Attendance: UNATNDD
Segmented circle: no

Airport Communications

WX ASOS at IJD (14 nm NW): 133.675 (860-456-8839)
WX ASOS at GON (15 nm S): PHONE 860-449-8921
WX ASOS at WST (15 nm SE): 132.375 (401-596-9543)
WX AWOS-3 at LZD (15 nm N): 119.125 (860-779-7251)

Nearby radio navigation aids

VOR radial/distance  VOR name  Freq  Var
ORWr081/1.6NORWICH VOR/DME110.0014W
GONr029/14.7GROTON VOR/DME110.8514W
PUTr207/24.0PUTNAM VOR/DME117.4014W
PVDr263/25.9PROVIDENCE VOR/DME115.6014W
HFDr113/26.4HARTFORD VOR/DME114.9013W
SEYr339/29.7SANDY POINT VOR/DME117.8015W
MADr078/36.0MADISON VOR/DME110.4013W

Airport Services

Runway Information

Runway 1/19

Dimensions: 1700 x 50 ft. / 518 x 15 m
Surface: turf
RUNWAY 1  RUNWAY 19
Traffic pattern: leftleft

Airport Ownership and Management from official FAA records

Ownership: Privately-owned
Owner: WALTER H. HELD
100 BREWSTER RD.
JEWETT CITY, CT 06351
Phone 860-376-4265
Manager: WALTER H. HELD
100 BREWSTER RD.
JEWETT CITY, CT 06351
Phone 860-376-4265

Airport Operational Statistics

Aircraft based on the field: 1
Single engine airplanes: 1
    

Instrument Procedures

There are no published instrument procedures at 24CT.

Some nearby airports with instrument procedures:

KIJD - Windham Airport (14 nm NW)
KGON - Groton-New London Airport (15 nm S)
KWST - Westerly State Airport (15 nm SE)
KLZD - Danielson Airport (15 nm N)
0B8 - Elizabeth Field Airport (19 nm S)
 
Loc | Ops | Rwys | IFR | FBO | Links
Com | Nav | Svcs | Stats | Notes

Silver City Flying Club
 
Area around 24CT (Bee Field Airport)
 
Road maps at: MapQuest Bing Google
 
Aerial photo
No photo
 
Sectional chart

 
Airport distance calculator
Flying to Bee Field Airport? Find the distance to fly.

From to 24CT

Sunrise and sunset
Times for 24-Feb-2018
 Local
(UTC-5)
 Zulu
(UTC)
Morning civil twilight06:0311:03
Sunrise06:3111:31
Sunset17:3122:31
Evening civil twilight17:5922:59

Current date and time
Zulu (UTC)  24-Feb-2018 07:52:36
Local (UTC-5)  24-Feb-2018 02:52:36
 
METAR
KGON 
15nm S 
240656Z AUTO 28005KT 10SM OVC006 05/04 A3012 RMK AO2 SLP198 T00500039
KIJD 
15nm NW 
240652Z AUTO VRB03KT 10SM BKN010 05/03 A3010 RMK AO2 SLP193 T00500033 TSNO
KWST 
15nm SE 
240734Z AUTO 24007KT 5SM BR OVC005 05/05 A3010 RMK AO2 T00500050
KOQU 
25nm E 
240350Z 35006KT 2SM BR BKN005 OVC007 03/02 A3016 RMK LAST
KPVD 
26nm E 
240718Z 26009G15KT 10SM OVC009 06/04 A3008 RMK AO2 T00560044
KSNC 
27nm SW 
240735Z AUTO VRB06G11KT 5SM BR OVC003 04/04 A3010 RMK AO2
TAF
KGON 
15nm S 
240555Z 2406/2506 25005KT P6SM OVC005 FM240800 29004KT 5SM BR OVC005 FM241000 29007KT P6SM BKN007 BKN060 OVC150 FM241500 31010KT P6SM SCT015 OVC120 FM242000 34011KT P6SM FEW020 OVC080 FM242300 36004KT 5SM -RA BR BKN025 OVC060 FM250500 06009KT 4SM -DZ BR BKN012 OVC035
NOTAMs
Click for the latest NOTAMs
NOTAMs are issued by the DoD/FAA and will open in a separate window not controlled by AirNav.

 

 
 

Would you like to see your business listed on this page?

 If your business provides an interesting product or service to pilots, flight crews, aircraft, or users of the Bee Field Airport, you should consider listing it here.  To start the listing process, click on the button below
 
Add a business
 

Other Pages about Bee Field Airport

Update a link
 
Copyright © AirNav, LLC. All rights reserved. Privacy Policy  Contact